Find Starlink 34232

NORAD ID: 65019 Int'l Des: 2025-161 Owner: SPXS Country: US Constellation: starlink operational
LEOCIRCULAR

Current View

Loading 3D Globe...

About Starlink 34232

Starlink 34232 (NORAD 65019) is a starlink constellation satellite (v2 mini) launched Jul 30, 2025 by SPXS of US. It operates in LEO, CIRCULAR orbit with a mass of 575.00 kg.

Upcoming Passes

Passes for default location (London). Set your location on the main map for personalized predictions.

Altitude History

Loading altitude history...

Two-Line Element Set

1 65019U 25161E 26236.51122439 .00028517 00000-0 85160-3 0 9998
2 65019 53.1593 234.0152 0000678 98.8513 261.2567 15.34411787 61143
Epoch: Aug 24, 2026 • Age: 13 hours

Current Status

Altitude 471.4 km
Apogee / Perigee N/A
Velocity 7.63 km/s
Sub-Earth Point -28.77°S, 76.47°E
Launch Date Jul 30, 2025
Age 1 year
Type internet

Technical Details

Classification Payload
Mass 575.00 kg
Dry Mass 530.00 kg
Total Mass 575.00 kg
Length 0.30 m
Diameter 4.10 m
Span 29.00 m
Shape Box + pan
Manufacturer SPXS
Bus Type Starlink V2MO
Phase Status In Orbit
Owner/State SPXS/US

Most Searched